Overview Statistics Trail Chart Weather Telemetry Raw packets
 

This is the latest recevied weather packets stored in our database for station/object OE6JVE-13. If no packets are shown the sender has not sent any weather packets the latest 10 day(s).

<< 48 49 50 51 >>
Time Temp. Humidity Pressure Rain* Wind** Luminosity Snow
1787850662 23.89° C 75% 1007.1 hPa 0 mm - - -
1787850044 24.44° C 74% 1007.1 hPa 0 mm - - -
1787849451 24.44° C 73% 1007 hPa 0 mm - - -
1787848860 25° C 72% 1007 hPa 0 mm - - -
1787848267 25° C 70% 1007.1 hPa 0 mm - - -
1787847681 25.56° C 70% 1007.1 hPa 0 mm - - -
1787847016 26.11° C 67% 1007.1 hPa 0 mm - - -
1787846424 26.67° C 65% 1007.1 hPa 0 mm - - -
1787845832 27.22° C 60% 1007.1 hPa 0 mm - - -
1787845241 28.33° C 57% 1007.1 hPa 0 mm - - -
1787844648 29.44° C 54% 1007.1 hPa 0 mm - - -
1787844056 30° C 50% 1007 hPa 0 mm - - -
1787843464 30° C 49% 1007 hPa 0 mm - - -
1787842881 30° C 51% 1006.8 hPa 0 mm - - -
1787842279 30.56° C 49% 1006.7 hPa 0 mm - - -
1787841621 31.11° C 46% 1006.6 hPa 0 mm - - -
1787841030 31.11° C 45% 1006.5 hPa 0 mm - - -
1787840437 31.67° C 46% 1006.6 hPa 0 mm - - -
1787839845 31.11° C 46% 1006.6 hPa 0 mm - - -
1787839253 31.11° C 44% 1006.8 hPa 0 mm - - -
1787838661 31.67° C 42% 1006.8 hPa 0 mm - - -
1787838069 31.67° C 44% 1006.8 hPa 0 mm - - -
1787837612 32.22° C 40% 1006.8 hPa 0 mm - - -
1787836820 31.67° C 45% 1006.6 hPa 0 mm - - -
1787836227 31.67° C 44% 1006.7 hPa 0 mm - - -

* Rain latest hour (hover to see other rain measurements)
** Current wind speed in m/s (hover to see current wind gust speed)